| time (UTC) | temp F | wind direction | speed MPH | gust MPH | rain 1hr in | rain 24hr in | rain mn in | humidity % | barometer mb |
| 20260905032400 | 85 | 111 | 2.0 | 5.0 | 0.00 | 0.00 | 0.00 | 57 | 1013.1 |
| 20260905031855 | 85 | 148 | 2.0 | 3.0 | 0.00 | 0.00 | 0.00 | 57 | 1013.2 |
| 20260905031351 | 85 | 146 | 1.0 | 3.0 | 0.00 | 0.00 | 0.00 | 57 | 1013.1 |
| 20260905030846 | 85 | 112 | 1.0 | 3.0 | 0.00 | 0.00 | 0.00 | 57 | 1013.1 |
| 20260905030342 | 85 | 145 | 0.0 | 3.0 | 0.00 | 0.00 | 0.00 | 57 | 1012.9 |
| 20260905025841 | 85 | 131 | 0.0 | 2.0 | 0.00 | 0.00 | 0.00 | 57 | 1013.1 |
| 20260905025336 | 85 | 123 | 1.0 | 2.0 | 0.00 | 0.00 | 0.00 | 57 | 1012.9 |
| 20260905024833 | 85 | 137 | 1.0 | 2.0 | 0.00 | 0.00 | 0.00 | 57 | 1012.7 |
| 20260905024327 | 86 | 119 | 1.0 | 2.0 | 0.00 | 0.00 | 0.00 | 56 | 1012.7 |
| 20260905023823 | 86 | 123 | 0.0 | 2.0 | 0.00 | 0.00 | 0.00 | 55 | 1012.6 |
| 20260905023319 | 86 | 120 | 1.0 | 2.0 | 0.00 | 0.00 | 0.00 | 55 | 1012.7 |
| 20260905022817 | 86 | 135 | 1.0 | 2.0 | 0.00 | 0.00 | 0.00 | 54 | 1012.5 |
| 20260905022312 | 87 | 122 | 0.0 | 3.0 | 0.00 | 0.00 | 0.00 | 54 | 1012.5 |
| 20260905021812 | 87 | 122 | 2.0 | 3.0 | 0.00 | 0.00 | 0.00 | 54 | 1012.3 |
| 20260905021308 | 87 | 117 | 2.0 | 2.0 | 0.00 | 0.00 | 0.00 | 53 | 1012.5 |
| 20260905020802 | 87 | 172 | 2.0 | 3.0 | 0.00 | 0.00 | 0.00 | 53 | 1012.3 |
| 20260905020257 | 87 | 125 | 1.0 | 2.0 | 0.00 | 0.00 | 0.00 | 52 | 1012.2 |
| 20260905015756 | 87 | 153 | 1.0 | 1.0 | 0.00 | 0.00 | 0.00 | 51 | 1012.3 |
| 20260905015251 | 88 | 122 | 1.0 | 2.0 | 0.00 | 0.00 | 0.00 | 51 | 1012.2 |
| 20260905014749 | 88 | 135 | 0.0 | 2.0 | 0.00 | 0.00 | 0.00 | 50 | 1011.9 |
| 20260905014245 | 89 | 123 | 2.0 | 3.0 | 0.00 | 0.00 | 0.00 | 49 | 1011.7 |
| 20260905013741 | 89 | 136 | 3.0 | 3.0 | 0.00 | 0.00 | 0.00 | 49 | 1011.6 |
| 20260905013237 | 89 | 141 | 1.0 | 2.0 | 0.00 | 0.00 | 0.00 | 48 | 1011.9 |
| 20260905012732 | 90 | 105 | 1.0 | 2.0 | 0.00 | 0.00 | 0.00 | 47 | 1012.0 |
| 20260905012227 | 90 | 175 | 2.0 | 3.0 | 0.00 | 0.00 | 0.00 | 47 | 1011.4 |
| 20260905011724 | 90 | 115 | 1.0 | 5.0 | 0.00 | 0.00 | 0.00 | 46 | 1011.5 |
| 20260905011214 | 91 | 148 | 0.0 | 0.0 | 0.00 | 0.00 | 0.00 | 46 | 1011.3 |
| 20260905010714 | 91 | 104 | 2.0 | 3.0 | 0.00 | 0.00 | 0.00 | 46 | 1011.4 |
| 20260905010209 | 91 | 115 | 0.0 | 3.0 | 0.00 | 0.00 | 0.00 | 45 | 1011.3 |
| 20260905005706 | 92 | 114 | 2.0 | 3.0 | 0.00 | 0.00 | 0.00 | 44 | 1011.4 |
| 20260905005201 | 92 | 145 | 0.0 | 1.0 | 0.00 | 0.00 | 0.00 | 43 | 1011.3 |
| 20260905004655 | 92 | 111 | 1.0 | 3.0 | 0.00 | 0.00 | 0.00 | 43 | 1011.5 |
| 20260905004150 | 93 | 175 | 1.0 | 2.0 | 0.00 | 0.00 | 0.00 | 42 | 1011.4 |
| 20260905003646 | 93 | 137 | 1.0 | 3.0 | 0.00 | 0.00 | 0.00 | 42 | 1011.3 |
| 20260905003141 | 94 | 134 | 0.0 | 2.0 | 0.00 | 0.00 | 0.00 | 41 | 1011.1 |
| 20260905002637 | 94 | 131 | 0.0 | 3.0 | 0.00 | 0.00 | 0.00 | 40 | 1011.5 |
| 20260905002131 | 95 | 128 | 1.0 | 5.0 | 0.00 | 0.00 | 0.00 | 40 | 1011.1 |
| 20260905001627 | 95 | 132 | 1.0 | 7.0 | 0.00 | 0.00 | 0.00 | 39 | 1011.1 |
| 20260905001126 | 95 | 101 | 1.0 | 8.0 | 0.00 | 0.00 | 0.00 | 38 | 1011.3 |
| 20260905000621 | 96 | 94 | 1.0 | 5.0 | 0.00 | 0.00 | 0.00 | 38 | 1011.2 |
| 20260905000117 | 96 | 174 | 1.0 | 6.0 | 0.00 | 0.00 | 0.00 | 38 | 1011.2 |
| 20260904235617 | 96 | 113 | 3.0 | 7.0 | 0.00 | 0.00 | 0.00 | 38 | 1011.2 |
| 20260904235116 | 97 | 99 | 5.0 | 11.0 | 0.00 | 0.00 | 0.00 | 38 | 1011.1 |
| 20260904234612 | 98 | 107 | 5.0 | 10.0 | 0.00 | 0.00 | 0.00 | 37 | 1011.1 |
| 20260904234107 | 98 | 73 | 5.0 | 7.0 | 0.00 | 0.00 | 0.00 | 36 | 1011.1 |
| 20260904233602 | 98 | 132 | 1.0 | 13.0 | 0.00 | 0.00 | 0.00 | 35 | 1010.7 |
| 20260904233058 | 98 | 112 | 7.0 | 10.0 | 0.00 | 0.00 | 0.00 | 35 | 1011.0 |
| 20260904232555 | 98 | 134 | 3.0 | 9.0 | 0.00 | 0.00 | 0.00 | 35 | 1010.9 |
| 20260904232051 | 99 | 117 | 9.0 | 14.0 | 0.00 | 0.00 | 0.00 | 34 | 1010.9 |
| 20260904231547 | 99 | 110 | 7.0 | 9.0 | 0.00 | 0.00 | 0.00 | 35 | 1011.0 |
| 20260904231041 | 99 | 97 | 5.0 | 11.0 | 0.00 | 0.00 | 0.00 | 35 | 1010.9 |
| 20260904230540 | 99 | 65 | 4.0 | 8.0 | 0.00 | 0.00 | 0.00 | 35 | 1010.9 |
| 20260904230036 | 100 | 104 | 3.0 | 6.0 | 0.00 | 0.00 | 0.00 | 35 | 1010.8 |
| 20260904225534 | 100 | 150 | 3.0 | 7.0 | 0.00 | 0.00 | 0.00 | 35 | 1010.9 |
| 20260904225033 | 100 | 176 | 3.0 | 11.0 | 0.00 | 0.00 | 0.00 | 35 | 1011.0 |
| 20260904224529 | 100 | 79 | 3.0 | 8.0 | 0.00 | 0.00 | 0.00 | 35 | 1010.8 |
| 20260904224028 | 101 | 159 | 3.0 | 10.0 | 0.00 | 0.00 | 0.00 | 35 | 1010.9 |
| 20260904223527 | 100 | 172 | 3.0 | 7.0 | 0.00 | 0.00 | 0.00 | 35 | 1010.7 |
| 20260904223024 | 100 | 140 | 1.0 | 7.0 | 0.00 | 0.00 | 0.00 | 35 | 1010.6 |
| 20260904222519 | 100 | 116 | 7.0 | 14.0 | 0.00 | 0.00 | 0.00 | 35 | 1010.8 |
| 20260904222014 | 101 | 133 | 6.0 | 8.0 | 0.00 | 0.00 | 0.00 | 33 | 1010.7 |
| 20260904221508 | 101 | 131 | 6.0 | 9.0 | 0.00 | 0.00 | 0.00 | 33 | 1011.0 |
| 20260904221003 | 100 | 96 | 7.0 | 10.0 | 0.00 | 0.00 | 0.00 | 34 | 1010.7 |
| 20260904220503 | 100 | 85 | 7.0 | 15.0 | 0.00 | 0.00 | 0.00 | 33 | 1010.9 |
| 20260904215958 | 100 | 132 | 9.0 | 14.0 | 0.00 | 0.00 | 0.00 | 33 | 1010.7 |
| 20260904215453 | 101 | 90 | 8.0 | 15.0 | 0.00 | 0.00 | 0.00 | 33 | 1010.6 |
| 20260904214948 | 101 | 200 | 3.0 | 9.0 | 0.00 | 0.00 | 0.00 | 33 | 1010.9 |
| 20260904214444 | 102 | 129 | 7.0 | 10.0 | 0.00 | 0.00 | 0.00 | 33 | 1010.8 |
| 20260904213739 | 102 | 130 | 8.0 | 11.0 | 0.00 | 0.00 | 0.00 | 34 | 1010.9 |
| 20260904213235 | 102 | 130 | 8.0 | 11.0 | 0.00 | 0.00 | 0.00 | 34 | 1010.9 |
| 20260904212731 | 102 | 138 | 5.0 | 10.0 | 0.00 | 0.00 | 0.00 | 34 | 1011.1 |
| 20260904212225 | 101 | 206 | 3.0 | 7.0 | 0.00 | 0.00 | 0.00 | 35 | 1011.1 |
| 20260904211725 | 101 | 87 | 5.0 | 9.0 | 0.00 | 0.00 | 0.00 | 35 | 1010.8 |
| 20260904211220 | 101 | 154 | 3.0 | 11.0 | 0.00 | 0.00 | 0.00 | 35 | 1010.9 |
| 20260904210715 | 101 | 152 | 6.0 | 10.0 | 0.00 | 0.00 | 0.00 | 35 | 1010.9 |
| 20260904210210 | 101 | 102 | 7.0 | 9.0 | 0.00 | 0.00 | 0.00 | 36 | 1011.2 |
| 20260904205706 | 102 | 156 | 1.0 | 7.0 | 0.00 | 0.00 | 0.00 | 35 | 1011.1 |
| 20260904205202 | 102 | 123 | 3.0 | 7.0 | 0.00 | 0.00 | 0.00 | 35 | 1011.0 |
| 20260904204658 | 101 | 92 | 2.0 | 10.0 | 0.00 | 0.00 | 0.00 | 36 | 1010.9 |
| 20260904204154 | 101 | 203 | 3.0 | 5.0 | 0.00 | 0.00 | 0.00 | 35 | 1011.2 |
| 20260904203649 | 101 | 338 | 2.0 | 13.0 | 0.00 | 0.00 | 0.00 | 36 | 1011.1 |
| 20260904203146 | 102 | 129 | 6.0 | 13.0 | 0.00 | 0.00 | 0.00 | 35 | 1011.1 |
| 20260904202641 | 101 | 128 | 4.0 | 11.0 | 0.00 | 0.00 | 0.00 | 36 | 1011.3 |
| 20260904202138 | 102 | 197 | 3.0 | 6.0 | 0.00 | 0.00 | 0.00 | 35 | 1011.3 |
| 20260904201632 | 102 | 125 | 4.0 | 8.0 | 0.00 | 0.00 | 0.00 | 37 | 1011.4 |
| 20260904201127 | 101 | 124 | 5.0 | 7.0 | 0.00 | 0.00 | 0.00 | 35 | 1011.6 |
| 20260904200627 | 101 | 130 | 5.0 | 9.0 | 0.00 | 0.00 | 0.00 | 36 | 1011.7 |
| 20260904200122 | 101 | 162 | 5.0 | 8.0 | 0.00 | 0.00 | 0.00 | 36 | 1011.4 |
| 20260904195621 | 101 | 130 | 1.0 | 7.0 | 0.00 | 0.00 | 0.00 | 36 | 1011.6 |
| 20260904195119 | 101 | 53 | 6.0 | 10.0 | 0.00 | 0.00 | 0.00 | 37 | 1011.9 |
| 20260904194614 | 102 | 51 | 4.0 | 9.0 | 0.00 | 0.00 | 0.00 | 35 | 1011.9 |
| 20260904194109 | 101 | 157 | 1.0 | 11.0 | 0.00 | 0.00 | 0.00 | 37 | 1011.3 |
| 20260904193603 | 101 | 215 | 7.0 | 10.0 | 0.00 | 0.00 | 0.00 | 37 | 1011.6 |
| 20260904193100 | 101 | 160 | 3.0 | 8.0 | 0.00 | 0.00 | 0.00 | 36 | 1011.4 |
| 20260904192600 | 101 | 104 | 4.0 | 8.0 | 0.00 | 0.00 | 0.00 | 38 | 1011.7 |
| 20260904192055 | 100 | 155 | 3.0 | 9.0 | 0.00 | 0.00 | 0.00 | 37 | 1011.7 |
| 20260904191552 | 100 | 227 | 5.0 | 10.0 | 0.00 | 0.00 | 0.00 | 39 | 1012.0 |
| 20260904191048 | 100 | 162 | 1.0 | 6.0 | 0.00 | 0.00 | 0.00 | 40 | 1011.9 |
| 20260904190543 | 99 | 109 | 6.0 | 10.0 | 0.00 | 0.00 | 0.00 | 40 | 1012.1 |
| 20260904190040 | 99 | 170 | 0.0 | 5.0 | 0.00 | 0.00 | 0.00 | 41 | 1012.3 |
| 20260904185536 | 99 | 131 | 6.0 | 10.0 | 0.00 | 0.00 | 0.00 | 41 | 1012.3 |
| 20260904185031 | 99 | 99 | 1.0 | 8.0 | 0.00 | 0.00 | 0.00 | 42 | 1012.4 |
| 20260904184525 | 99 | 117 | 3.0 | 7.0 | 0.00 | 0.00 | 0.00 | 42 | 1012.5 |
| 20260904184020 | 98 | 71 | 4.0 | 9.0 | 0.00 | 0.00 | 0.00 | 43 | 1012.7 |
| 20260904183515 | 98 | 153 | 0.0 | 7.0 | 0.00 | 0.00 | 0.00 | 45 | 1012.5 |
| 20260904183010 | 99 | 155 | 7.0 | 9.0 | 0.00 | 0.00 | 0.00 | 44 | 1012.6 |
| 20260904182506 | 97 | 203 | 2.0 | 7.0 | 0.00 | 0.00 | 0.00 | 46 | 1012.5 |
| 20260904182005 | 98 | 120 | 2.0 | 8.0 | 0.00 | 0.00 | 0.00 | 47 | 1012.6 |
| 20260904181501 | 98 | 94 | 1.0 | 6.0 | 0.00 | 0.00 | 0.00 | 47 | 1012.7 |
| 20260904180955 | 96 | 161 | 2.0 | 6.0 | 0.00 | 0.00 | 0.00 | 49 | 1012.7 |
| 20260904175520 | 96 | 108 | 2.0 | 6.0 | 0.00 | 0.00 | 0.00 | 51 | 1012.9 |
| 20260904175018 | 96 | 108 | 2.0 | 6.0 | 0.00 | 0.00 | 0.00 | 51 | 1012.9 |
| 20260904174514 | 95 | 128 | 2.0 | 7.0 | 0.00 | 0.00 | 0.00 | 50 | 1013.2 |
| 20260904174011 | 95 | 181 | 6.0 | 9.0 | 0.00 | 0.00 | 0.00 | 51 | 1012.9 |
| 20260904173505 | 95 | 121 | 1.0 | 8.0 | 0.00 | 0.00 | 0.00 | 52 | 1013.0 |
| 20260904173001 | 94 | 183 | 1.0 | 7.0 | 0.00 | 0.00 | 0.00 | 52 | 1013.2 |
| 20260904172456 | 94 | 167 | 3.0 | 9.0 | 0.00 | 0.00 | 0.00 | 53 | 1013.2 |
| 20260904171955 | 94 | 130 | 4.0 | 8.0 | 0.00 | 0.00 | 0.00 | 53 | 1013.4 |
| 20260904170807 | 93 | 134 | 4.0 | 7.0 | 0.00 | 0.00 | 0.00 | 53 | 1013.1 |
| 20260904170303 | 93 | 134 | 4.0 | 7.0 | 0.00 | 0.00 | 0.00 | 53 | 1013.1 |
| 20260904165802 | 93 | 195 | 2.0 | 6.0 | 0.00 | 0.00 | 0.00 | 55 | 1013.1 |
| 20260904165256 | 93 | 167 | 1.0 | 6.0 | 0.00 | 0.00 | 0.00 | 56 | 1013.1 |
| 20260904164755 | 93 | 203 | 1.0 | 6.0 | 0.00 | 0.00 | 0.00 | 55 | 1013.3 |
| 20260904164043 | 92 | 115 | 5.0 | 9.0 | 0.00 | 0.00 | 0.00 | 58 | 1013.3 |
| 20260904163543 | 92 | 115 | 5.0 | 9.0 | 0.00 | 0.00 | 0.00 | 58 | 1013.3 |
| 20260904163039 | 92 | 142 | 2.0 | 5.0 | 0.00 | 0.00 | 0.00 | 56 | 1013.4 |
| 20260904162533 | 92 | 211 | 2.0 | 8.0 | 0.00 | 0.00 | 0.00 | 57 | 1013.4 |
| 20260904162028 | 93 | 300 | 3.0 | 5.0 | 0.00 | 0.00 | 0.00 | 56 | 1013.2 |
| 20260904161523 | 90 | 176 | 3.0 | 6.0 | 0.00 | 0.00 | 0.00 | 60 | 1013.2 |
| 20260904161018 | 90 | 170 | 0.0 | 3.0 | 0.00 | 0.00 | 0.00 | 60 | 1013.0 |
| 20260904160513 | 89 | 160 | 0.0 | 7.0 | 0.00 | 0.00 | 0.00 | 62 | 1013.4 |
| 20260904160009 | 89 | 188 | 1.0 | 3.0 | 0.00 | 0.00 | 0.00 | 62 | 1013.3 |
| 20260904155503 | 89 | 161 | 1.0 | 7.0 | 0.00 | 0.00 | 0.00 | 63 | 1013.0 |
| 20260904155002 | 88 | 253 | 0.0 | 2.0 | 0.00 | 0.00 | 0.00 | 64 | 1013.1 |
| 20260904154456 | 88 | 277 | 0.0 | 2.0 | 0.00 | 0.00 | 0.00 | 64 | 1013.2 |
| 20260904153951 | 87 | 189 | 0.0 | 2.0 | 0.00 | 0.00 | 0.00 | 66 | 1013.2 |
| 20260904153446 | 87 | 160 | 4.0 | 6.0 | 0.00 | 0.00 | 0.00 | 66 | 1013.2 |
| 20260904152943 | 87 | 242 | 3.0 | 9.0 | 0.00 | 0.00 | 0.00 | 66 | 1013.0 |
| 20260904152438 | 87 | 205 | 1.0 | 3.0 | 0.00 | 0.00 | 0.00 | 66 | 1013.0 |
| 20260904151937 | 86 | 220 | 2.0 | 5.0 | 0.00 | 0.00 | 0.00 | 67 | 1013.1 |
| 20260904151433 | 85 | 162 | 1.0 | 7.0 | 0.00 | 0.00 | 0.00 | 69 | 1012.9 |
| 20260904150927 | 85 | 174 | 1.0 | 1.0 | 0.00 | 0.00 | 0.00 | 69 | 1013.0 |
| 20260904150422 | 86 | 161 | 1.0 | 3.0 | 0.00 | 0.00 | 0.00 | 68 | 1013.0 |
| 20260904145920 | 84 | 249 | 0.0 | 0.0 | 0.00 | 0.00 | 0.00 | 70 | 1013.0 |
| 20260904145417 | 85 | 163 | 3.0 | 5.0 | 0.00 | 0.00 | 0.00 | 69 | 1013.2 |
| 20260904144912 | 84 | 191 | 0.0 | 1.0 | 0.00 | 0.00 | 0.00 | 71 | 1013.1 |
| 20260904144407 | 84 | 193 | 0.0 | 3.0 | 0.00 | 0.00 | 0.00 | 72 | 1013.1 |
| 20260904143903 | 83 | 349 | 3.0 | 5.0 | 0.00 | 0.00 | 0.00 | 73 | 1012.9 |
| 20260904143400 | 83 | 144 | 1.0 | 1.0 | 0.00 | 0.00 | 0.00 | 73 | 1013.2 |
| 20260904142856 | 82 | 149 | 2.0 | 5.0 | 0.00 | 0.00 | 0.00 | 75 | 1013.0 |
| 20260904142352 | 82 | 211 | 4.0 | 6.0 | 0.00 | 0.00 | 0.00 | 75 | 1013.1 |
| 20260904141851 | 81 | 210 | 2.0 | 6.0 | 0.00 | 0.00 | 0.00 | 76 | 1013.1 |
| 20260904141347 | 80 | 152 | 1.0 | 5.0 | 0.00 | 0.00 | 0.00 | 77 | 1013.1 |
| 20260904140843 | 80 | 205 | 3.0 | 5.0 | 0.00 | 0.00 | 0.00 | 77 | 1013.3 |
| 20260904140337 | 80 | 189 | 3.0 | 5.0 | 0.00 | 0.00 | 0.00 | 78 | 1013.0 |
| 20260904135837 | 79 | 229 | 1.0 | 6.0 | 0.00 | 0.00 | 0.00 | 79 | 1013.1 |
| 20260904135331 | 79 | 160 | 5.0 | 6.0 | 0.00 | 0.00 | 0.00 | 79 | 1013.1 |
| 20260904134827 | 79 | 180 | 0.0 | 5.0 | 0.00 | 0.00 | 0.00 | 80 | 1013.0 |
| 20260904134322 | 78 | 177 | 0.0 | 6.0 | 0.00 | 0.00 | 0.00 | 80 | 1012.9 |
| 20260904133822 | 78 | 158 | 0.0 | 0.0 | 0.00 | 0.00 | 0.00 | 81 | 1012.8 |
| 20260904133318 | 78 | 194 | 2.0 | 3.0 | 0.00 | 0.00 | 0.00 | 82 | 1012.8 |
| 20260904132817 | 77 | 93 | 0.0 | 2.0 | 0.00 | 0.00 | 0.00 | 83 | 1013.0 |
| 20260904132313 | 77 | 172 | 0.0 | 0.0 | 0.00 | 0.00 | 0.00 | 84 | 1012.9 |
| 20260904131812 | 77 | 195 | 0.0 | 2.0 | 0.00 | 0.00 | 0.00 | 85 | 1012.9 |
| 20260904131308 | 76 | 176 | 1.0 | 2.0 | 0.00 | 0.00 | 0.00 | 85 | 1012.6 |
| 20260904130807 | 76 | 140 | 0.0 | 5.0 | 0.00 | 0.00 | 0.00 | 86 | 1012.7 |
| 20260904124944 | 74 | 127 | 0.0 | 5.0 | 0.00 | 0.00 | 0.00 | 88 | 1012.5 |
| 20260904124440 | 74 | 127 | 0.0 | 5.0 | 0.00 | 0.00 | 0.00 | 88 | 1012.5 |
| 20260904123936 | 74 | 127 | 0.0 | 5.0 | 0.00 | 0.00 | 0.00 | 88 | 1012.5 |
| 20260904123430 | 74 | 156 | 0.0 | 6.0 | 0.00 | 0.00 | 0.00 | 89 | 1012.5 |
| 20260904122925 | 74 | 156 | 0.0 | 6.0 | 0.00 | 0.00 | 0.00 | 89 | 1012.5 |
| 20260904122420 | 74 | 126 | 0.0 | 1.0 | 0.00 | 0.00 | 0.00 | 89 | 1012.6 |
| 20260904121914 | 74 | 150 | 0.0 | 0.0 | 0.00 | 0.00 | 0.00 | 89 | 1012.3 |
| 20260904121411 | 74 | 118 | 0.0 | 0.0 | 0.00 | 0.00 | 0.00 | 88 | 1012.5 |
| 20260904120907 | 74 | 130 | 0.0 | 2.0 | 0.00 | 0.00 | 0.00 | 88 | 1012.3 |
| 20260904120403 | 74 | 113 | 0.0 | 1.0 | 0.00 | 0.00 | 0.00 | 88 | 1012.3 |
| 20260904115858 | 74 | 178 | 1.0 | 3.0 | 0.00 | 0.00 | 0.00 | 88 | 1012.1 |
| 20260904115353 | 74 | 157 | 0.0 | 0.0 | 0.00 | 0.00 | 0.00 | 88 | 1012.3 |
| 20260904114847 | 74 | 174 | 0.0 | 0.0 | 0.00 | 0.00 | 0.00 | 88 | 1012.4 |
| 20260904114342 | 74 | 253 | 0.0 | 1.0 | 0.00 | 0.00 | 0.00 | 88 | 1012.1 |
| 20260904113837 | 74 | 141 | 0.0 | 1.0 | 0.00 | 0.00 | 0.00 | 88 | 1012.2 |
| 20260904113336 | 74 | 164 | 0.0 | 0.0 | 0.00 | 0.00 | 0.00 | 87 | 1012.2 |
| 20260904112832 | 74 | 171 | 0.0 | 0.0 | 0.00 | 0.00 | 0.00 | 87 | 1012.2 |
| 20260904112327 | 74 | 142 | 0.0 | 0.0 | 0.00 | 0.00 | 0.00 | 87 | 1012.2 |
| 20260904111822 | 74 | 145 | 0.0 | 2.0 | 0.00 | 0.00 | 0.00 | 87 | 1012.3 |
| 20260904111318 | 74 | 162 | 0.0 | 0.0 | 0.00 | 0.00 | 0.00 | 87 | 1012.3 |
| 20260904110814 | 75 | 88 | 0.0 | 5.0 | 0.00 | 0.00 | 0.00 | 86 | 1012.4 |
| 20260904110313 | 75 | 174 | 0.0 | 0.0 | 0.00 | 0.00 | 0.00 | 86 | 1012.4 |
| 20260904105807 | 75 | 203 | 0.0 | 3.0 | 0.00 | 0.00 | 0.00 | 86 | 1012.3 |
| 20260904105305 | 75 | 160 | 0.0 | 1.0 | 0.00 | 0.00 | 0.00 | 85 | 1012.3 |
| 20260904104757 | 75 | 150 | 0.0 | 0.0 | 0.00 | 0.00 | 0.00 | 85 | 1012.6 |
| 20260904104253 | 75 | 158 | 0.0 | 0.0 | 0.00 | 0.00 | 0.00 | 85 | 1012.5 |
| 20260904103749 | 75 | 157 | 0.0 | 1.0 | 0.00 | 0.00 | 0.00 | 84 | 1012.4 |
| 20260904103244 | 75 | 168 | 0.0 | 0.0 | 0.00 | 0.00 | 0.00 | 84 | 1012.5 |
| 20260904102739 | 75 | 168 | 0.0 | 1.0 | 0.00 | 0.00 | 0.00 | 84 | 1012.4 |
| 20260904102235 | 76 | 195 | 0.0 | 3.0 | 0.00 | 0.00 | 0.00 | 84 | 1012.3 |
| 20260904101731 | 76 | 199 | 0.0 | 2.0 | 0.00 | 0.00 | 0.00 | 83 | 1012.2 |
| 20260904101227 | 76 | 123 | 0.0 | 10.0 | 0.00 | 0.00 | 0.00 | 83 | 1012.3 |
| 20260904100722 | 76 | 166 | 2.0 | 5.0 | 0.00 | 0.00 | 0.00 | 83 | 1012.1 |
| 20260904100219 | 76 | 191 | 0.0 | 1.0 | 0.00 | 0.00 | 0.00 | 82 | 1012.3 |
| 20260904095718 | 76 | 204 | 0.0 | 2.0 | 0.00 | 0.00 | 0.00 | 82 | 1012.3 |
| 20260904095213 | 76 | 143 | 0.0 | 0.0 | 0.00 | 0.00 | 0.00 | 82 | 1012.3 |
| 20260904094708 | 76 | 186 | 4.0 | 7.0 | 0.00 | 0.00 | 0.00 | 82 | 1012.4 |
| 20260904094202 | 76 | 173 | 3.0 | 6.0 | 0.00 | 0.00 | 0.00 | 81 | 1012.1 |
| 20260904093700 | 77 | 116 | 2.0 | 3.0 | 0.00 | 0.00 | 0.00 | 81 | 1012.0 |
| 20260904093159 | 77 | 142 | 0.0 | 2.0 | 0.00 | 0.00 | 0.00 | 81 | 1011.9 |
| 20260904092655 | 77 | 169 | 0.0 | 3.0 | 0.00 | 0.00 | 0.00 | 80 | 1012.1 |
| 20260904092151 | 77 | 219 | 1.0 | 3.0 | 0.00 | 0.00 | 0.00 | 80 | 1012.0 |
| 20260904091647 | 77 | 187 | 0.0 | 3.0 | 0.00 | 0.00 | 0.00 | 79 | 1011.9 |
| 20260904091146 | 77 | 211 | 0.0 | 3.0 | 0.00 | 0.00 | 0.00 | 79 | 1011.9 |
| 20260904090642 | 77 | 120 | 3.0 | 6.0 | 0.00 | 0.00 | 0.00 | 79 | 1011.9 |
| 20260904090137 | 77 | 184 | 0.0 | 5.0 | 0.00 | 0.00 | 0.00 | 78 | 1012.0 |
| 20260904085638 | 77 | 174 | 1.0 | 3.0 | 0.00 | 0.00 | 0.00 | 78 | 1012.2 |
| 20260904085132 | 77 | 177 | 1.0 | 5.0 | 0.00 | 0.00 | 0.00 | 78 | 1011.9 |
| 20260904084627 | 78 | 313 | 0.0 | 1.0 | 0.00 | 0.00 | 0.00 | 77 | 1011.9 |
| 20260904084124 | 78 | 161 | 0.0 | 0.0 | 0.00 | 0.00 | 0.00 | 77 | 1011.9 |
| 20260904083620 | 78 | 166 | 0.0 | 0.0 | 0.00 | 0.00 | 0.00 | 76 | 1011.9 |
| 20260904083115 | 78 | 244 | 0.0 | 0.0 | 0.00 | 0.00 | 0.00 | 76 | 1011.9 |
| 20260904082610 | 78 | 247 | 0.0 | 1.0 | 0.00 | 0.00 | 0.00 | 76 | 1011.9 |
| 20260904082106 | 78 | 186 | 0.0 | 6.0 | 0.00 | 0.00 | 0.00 | 75 | 1011.6 |
| 20260904081601 | 78 | 152 | 0.0 | 2.0 | 0.00 | 0.00 | 0.00 | 75 | 1012.1 |
| 20260904081056 | 78 | 140 | 0.0 | 0.0 | 0.00 | 0.00 | 0.00 | 75 | 1011.7 |
| 20260904080552 | 79 | 152 | 0.0 | 3.0 | 0.00 | 0.00 | 0.00 | 74 | 1012.0 |
| 20260904080048 | 79 | 119 | 0.0 | 1.0 | 0.00 | 0.00 | 0.00 | 74 | 1011.9 |
| 20260904075544 | 79 | 173 | 0.0 | 5.0 | 0.00 | 0.00 | 0.00 | 73 | 1011.9 |
| 20260904075038 | 79 | 184 | 4.0 | 6.0 | 0.00 | 0.00 | 0.00 | 73 | 1011.7 |
| 20260904074537 | 79 | 167 | 0.0 | 1.0 | 0.00 | 0.00 | 0.00 | 73 | 1011.7 |
| 20260904074032 | 79 | 167 | 0.0 | 5.0 | 0.00 | 0.00 | 0.00 | 72 | 1011.6 |
| 20260904073527 | 79 | 155 | 0.0 | 2.0 | 0.00 | 0.00 | 0.00 | 72 | 1011.9 |
| 20260904073024 | 79 | 325 | 0.0 | 1.0 | 0.00 | 0.00 | 0.00 | 72 | 1012.0 |
| 20260904072519 | 79 | 204 | 1.0 | 5.0 | 0.00 | 0.00 | 0.00 | 71 | 1011.9 |
| 20260904072014 | 80 | 199 | 0.0 | 2.0 | 0.00 | 0.00 | 0.00 | 71 | 1012.0 |
| 20260904071509 | 80 | 183 | 0.0 | 1.0 | 0.00 | 0.00 | 0.00 | 70 | 1012.1 |
| 20260904071004 | 80 | 117 | 0.0 | 0.0 | 0.00 | 0.00 | 0.00 | 70 | 1012.1 |
| 20260904070503 | 80 | 221 | 0.0 | 7.0 | 0.00 | 0.00 | 0.00 | 69 | 1011.9 |
| 20260904065957 | 80 | 180 | 1.0 | 7.0 | 0.00 | 0.00 | 0.00 | 69 | 1012.1 |
| 20260904065453 | 80 | 244 | 0.0 | 5.0 | 0.00 | 0.00 | 0.00 | 69 | 1012.0 |
| 20260904064949 | 80 | 232 | 0.0 | 5.0 | 0.00 | 0.00 | 0.00 | 69 | 1011.7 |
| 20260904064445 | 81 | 62 | 0.0 | 0.0 | 0.00 | 0.00 | 0.00 | 68 | 1011.9 |
| 20260904063939 | 81 | 213 | 0.0 | 1.0 | 0.00 | 0.00 | 0.00 | 68 | 1011.9 |
| 20260904063436 | 81 | 121 | 3.0 | 8.0 | 0.00 | 0.00 | 0.00 | 67 | 1012.0 |
| 20260904062931 | 81 | 128 | 0.0 | 3.0 | 0.00 | 0.00 | 0.00 | 67 | 1011.7 |
| 20260904062427 | 81 | 156 | 0.0 | 2.0 | 0.00 | 0.00 | 0.00 | 66 | 1011.9 |
| 20260904061922 | 81 | 186 | 0.0 | 9.0 | 0.00 | 0.00 | 0.00 | 66 | 1011.9 |
| 20260904061419 | 82 | 152 | 0.0 | 6.0 | 0.00 | 0.00 | 0.00 | 66 | 1011.7 |
| 20260904060915 | 82 | 187 | 0.0 | 3.0 | 0.00 | 0.00 | 0.00 | 65 | 1011.9 |
| 20260904060410 | 82 | 142 | 0.0 | 2.0 | 0.00 | 0.00 | 0.00 | 65 | 1011.5 |
| 20260904055906 | 82 | 129 | 0.0 | 5.0 | 0.00 | 0.00 | 0.00 | 65 | 1011.7 |
| 20260904055401 | 82 | 160 | 0.0 | 3.0 | 0.00 | 0.00 | 0.00 | 64 | 1011.5 |
| 20260904054856 | 82 | 133 | 0.0 | 6.0 | 0.00 | 0.00 | 0.00 | 64 | 1011.6 |
| 20260904054352 | 82 | 180 | 1.0 | 5.0 | 0.00 | 0.00 | 0.00 | 64 | 1011.6 |
| 20260904053847 | 82 | 249 | 1.0 | 3.0 | 0.00 | 0.00 | 0.00 | 63 | 1011.6 |
| 20260904053347 | 83 | 160 | 1.0 | 5.0 | 0.00 | 0.00 | 0.00 | 63 | 1011.4 |
| 20260904052843 | 83 | 157 | 0.0 | 9.0 | 0.00 | 0.00 | 0.00 | 62 | 1011.4 |
| 20260904052339 | 83 | 195 | 0.0 | 6.0 | 0.00 | 0.00 | 0.00 | 62 | 1011.5 |
| 20260904051835 | 83 | 214 | 2.0 | 6.0 | 0.00 | 0.00 | 0.00 | 62 | 1011.1 |
| 20260904051331 | 84 | 140 | 2.0 | 3.0 | 0.00 | 0.00 | 0.00 | 61 | 1010.9 |
| 20260904050825 | 84 | 83 | 3.0 | 7.0 | 0.00 | 0.00 | 0.00 | 61 | 1011.1 |
| 20260904050322 | 84 | 80 | 5.0 | 11.0 | 0.00 | 0.00 | 0.00 | 60 | 1011.2 |
| 20260904045822 | 84 | 120 | 1.0 | 8.0 | 0.00 | 0.00 | 0.00 | 60 | 1011.0 |
| 20260904045317 | 84 | 189 | 1.0 | 10.0 | 0.00 | 0.00 | 0.00 | 59 | 1010.8 |
| 20260904044812 | 85 | 176 | 1.0 | 7.0 | 0.00 | 0.00 | 0.00 | 59 | 1010.9 |
| 20260904044308 | 85 | 188 | 5.0 | 9.0 | 0.00 | 0.00 | 0.00 | 58 | 1011.2 |
| 20260904043804 | 85 | 192 | 3.0 | 9.0 | 0.00 | 0.00 | 0.00 | 58 | 1010.9 |
| 20260904043300 | 85 | 272 | 1.0 | 11.0 | 0.00 | 0.00 | 0.00 | 58 | 1010.8 |
| 20260904042755 | 85 | 203 | 2.0 | 11.0 | 0.00 | 0.00 | 0.00 | 57 | 1010.8 |
| 20260904042252 | 85 | 164 | 8.0 | 11.0 | 0.00 | 0.00 | 0.00 | 57 | 1010.9 |
| 20260904041751 | 86 | 63 | 4.0 | 10.0 | 0.00 | 0.00 | 0.00 | 57 | 1010.7 |
| 20260904041247 | 86 | 208 | 2.0 | 15.0 | 0.00 | 0.00 | 0.00 | 56 | 1010.7 |
| 20260904040743 | 86 | 78 | 5.0 | 10.0 | 0.00 | 0.00 | 0.00 | 56 | 1010.7 |
| 20260904040238 | 86 | 214 | 1.0 | 5.0 | 0.00 | 0.00 | 0.00 | 56 | 1010.6 |
| 20260904035734 | 86 | 69 | 5.0 | 8.0 | 0.00 | 0.00 | 0.00 | 55 | 1010.8 |
| 20260904035230 | 87 | 178 | 2.0 | 11.0 | 0.00 | 0.00 | 0.00 | 54 | 1010.7 |
| 20260904034728 | 87 | 189 | 3.0 | 7.0 | 0.00 | 0.00 | 0.00 | 54 | 1010.7 |
| 20260904034224 | 87 | 110 | 4.0 | 7.0 | 0.00 | 0.00 | 0.00 | 53 | 1010.8 |
| 20260904033720 | 87 | 60 | 4.0 | 8.0 | 0.00 | 0.00 | 0.00 | 52 | 1010.7 |
| 20260904033217 | 87 | 61 | 3.0 | 11.0 | 0.00 | 0.00 | 0.00 | 51 | 1010.7 |
| 20260904032713 | 88 | 132 | 7.0 | 13.0 | 0.00 | 0.00 | 0.00 | 50 | 1010.6 |